Dewpoint
46 42 40 40 38 37 35 35 34 35 38 33 34 35 36 36 35 36 36 33 41 51 55 56 56 57 58 58 58 58 59 61 61 57 55 55 55 55 55 56 57 57 57 57
43 40 40 41 41 39 37 34 33 37 38 34 34 33 33 34 35 35 35 34 32 32 44 52 56 57 57 58 58 58 58 60 62 61 57 56 55 55 55 55 56 57 57 57
37 38 41 39 39 39 38 37 35 35 37 35 33 34 35 36 34 34 35 35 34 32 31 36 54 57 57 57 57 58 58 58 61 61 60 57 55 56 54 54 55 57 58 58
40 40 40 38 38 38 36 39 39 38 36 32 34 29 32 35 35 36 36 36 35 33 33 32 44 55 57 57 58 58 58 58 60 61 60 58 56 54 54 54 55 56 58 58
36 39 39 38 37 39 36 39 39 38 36 35 33 33 31 34 34 35 36 37 38 38 37 36 35 50 56 57 57 57 57 58 59 60 60 60 59 58 56 56 55 55 57 58
38 44 40 39 39 39 39 38 37 36 35 30 30 33 28 31 35 36 36 37 38 38 39 39 40 40 50 56 57 58 57 57 59 59 59 59 59 58 57 56 56 56 56 57
38 39 42 41 38 38 39 36 31 30 30 24 25 31 30 33 34 35 35 37 38 39 39 40 40 40 43 51 56 57 56 56 57 58 59 59 58 58 58 57 57 57 57 57
32 30 38 42 39 37 37 35 29 22 24 24 29 28 28 35 35 35 36 38 38 38 38 39 40 42 41 49 55 57 56 55 56 57 57 58 58 58 58 58 57 57 57 57
28 28 36 37 40 38 37 36 35 30 18 22 27 31 31 33 33 36 37 37 38 38 38 38 38 39 41 47 53 55 56 54 54 56 57 57 58 58 57 57 57 57 57 57
33 31 36 36 39 39 38 37 34 34 25 20 23 25 26 30 31 32 31 33 37 38 36 33 33 35 38 43 51 54 56 54 53 54 57 57 57 58 58 57 57 56 56 56
35 32 29 39 37 34 37 35 37 35 30 23 19 20 28 28 28 29 30 32 34 33 32 29 27 29 29 37 49 53 55 56 54 52 53 55 56 56 57 57 56 56 56 56
34 34 25 29 38 40 36 34 35 33 27 29 26 25 26 28 25 27 28 29 25 23 22 25 28 30 29 29 42 50 52 54 55 56 56 54 54 54 54 54 55 55 55 56
35 32 27 23 31 38 38 38 37 34 31 27 25 25 28 19 18 21 24 21 21 24 26 28 29 29 29 29 30 31 38 47 49 52 54 55 56 56 57 56 55 55 55 57
38 31 26 20 20 28 30 33 36 37 33 30 28 27 28 26 18 19 20 23 23 25 27 27 27 29 30 31 32 33 34 35 36 37 42 48 50 52 53 54 56 57 57 57
38 33 32 31 31 33 34 31 34 35 34 33 32 29 30 29 26 20 19 23 25 27 28 27 27 29 30 31 32 33 34 37 38 38 38 38 39 41 43 45 46 47 49 52
38 30 33 30 35 32 31 33 36 34 33 33 34 32 32 30 28 20 20 22 24 27 30 30 26 27 29 29 31 31 32 36 40 40 40 40 40 41 44 44 43 43 43 44
33 31 28 21 30 31 29 30 31 34 36 35 33 33 34 30 30 28 23 21 22 24 31 31 30 28 29 31 36 36 38 39 39 39 37 37 38 40 40 40 40 39 39 40
29 26 21 15 21 18 23 31 32 31 33 35 37 37 36 35 33 32 32 26 22 24 30 31 31 32 36 38 38 38 38 38 37 36 36 36 36 36 37 38 38 38 37 37
30 26 17 11 8 19 18 16 30 30 30 32 32 34 35 36 33 31 32 29 27 28 32 34 36 37 37 37 37 36 35 35 35 34 35 35 35 33 35 36 37 36 35 33
30 28 21 9 8 11 10 28 34 33 28 30 32 33 33 34 32 33 33 34 34 35 37 37 36 36 35 34 34 33 32 32 33 33 33 33 33 34 34 34 33 32 32 31
27 28 22 20 14 18 24 27 36 30 28 31 33 34 35 34 34 34 34 34 35 36 36 35 34 32 31 32 32 31 31 30 31 31 31 31 32 34 33 32 31 32 32 32
25 25 24 24 21 17 28 33 31 32 28 27 29 35 36 36 36 34 33 34 34 33 33 32 30 29 30 31 31 30 29 29 27 29 30 32 33 32 33 33 32 32 32 32
24 29 27 27 25 29 31 29 31 31 29 29 30 29 35 36 34 32 32 32 32 31 30 29 27 26 26 27 30 29 28 28 25 29 29 29 31 32 32 33 32 31 31 31
31 23 30 29 27 25 27 27 26 28 31 31 31 31 33 33 32 30 30 30 29 28 27 26 25 23 22 22 23 23 24 23 22 23 23 22 22 26 29 30 30 31 30 30
18 17 17 28 24 21 27 21 22 25 28 27 29 29 31 31 29 29 29 27 26 25 24 23 22 20 19 19 18 17 20 21 22 21 20 20 19 17 18 20 24 26 27 29
8 4 9 17 11 10 14 19 20 22 24 24 27 27 28 29 28 27 25 24 23 21 20 18 17 15 14 13 13 12 13 17 18 19 19 18 18 16 16 15 16 26 30 30
Lifted_Index
1 2 2 3 2 2 3 4 4 5 5 5 5 4 3 4 5 5 5 5 5 5 4 4 4 4 3 3 3 2 2 2 2 2 2 2 2 3 4 5 6 6 6 6
1 2 2 2 2 3 3 4 4 4 4 5 5 5 5 5 5 5 5 5 5 4 4 4 4 4 4 3 3 2 2 2 2 2 1 1 2 2 3 4 5 6 6 5
2 2 2 2 2 3 3 3 4 4 4 4 5 5 5 6 6 6 6 6 5 5 4 5 5 4 4 3 3 3 2 2 2 2 2 1 1 2 2 3 4 5 5 5
2 2 2 2 3 3 3 3 3 3 3 4 4 4 5 6 6 6 6 6 5 5 5 5 5 4 4 4 3 3 3 2 2 2 2 2 2 1 2 2 3 4 5 5
2 2 2 2 3 3 3 3 3 3 3 4 4 4 4 5 6 6 6 6 6 5 5 5 5 4 4 4 4 3 3 3 3 2 2 2 2 2 2 2 2 3 4 4
2 2 2 2 2 2 3 3 2 2 3 3 4 5 5 5 6 6 6 6 6 6 5 5 5 4 4 4 4 4 3 3 3 3 2 2 2 2 2 2 2 2 3 3
2 2 2 2 2 2 3 3 2 2 2 3 4 5 5 6 7 7 6 6 6 6 5 5 5 5 4 4 4 4 3 3 3 3 3 2 2 2 2 3 3 3 3 3
3 3 3 3 2 2 2 2 2 1 1 2 4 5 6 7 7 7 6 6 6 6 5 5 5 5 5 4 4 3 3 3 3 3 3 3 2 2 2 3 3 3 3 3
3 3 3 2 2 2 2 2 1 1 1 2 4 5 6 7 7 7 6 6 6 6 6 5 5 5 5 5 4 4 4 4 4 4 3 3 3 2 2 2 2 3 3 3
3 3 3 2 2 2 2 2 1 1 1 2 3 4 6 7 7 7 6 6 6 6 6 6 6 5 5 5 5 4 4 4 4 4 4 4 3 2 2 2 2 2 2 2
3 3 3 2 2 2 1 1 0 1 1 2 2 4 6 6 6 6 6 6 6 6 6 6 6 6 6 6 6 5 5 4 4 4 4 4 3 2 1 1 1 2 2 2
3 3 3 3 2 1 1 1 0 1 2 2 2 3 5 6 5 5 5 5 5 5 6 6 6 7 7 7 6 6 5 4 4 4 3 3 3 2 2 1 1 1 1 1
2 3 3 3 3 2 2 1 1 1 1 2 2 3 5 5 5 4 3 3 4 4 5 6 7 7 8 8 8 7 7 6 5 5 4 3 3 2 2 2 1 1 1 1
1 2 3 3 3 3 2 1 1 1 1 2 3 4 5 5 4 3 2 3 3 4 5 6 7 8 8 9 9 9 9 9 8 8 7 6 5 5 5 4 3 3 2 2
0 1 2 3 3 2 2 1 1 2 2 3 3 4 4 4 3 2 2 2 3 3 5 6 6 7 8 8 8 8 9 9 9 9 9 9 9 9 9 8 7 6 5 4
1 1 2 2 2 1 2 2 3 2 2 3 4 4 4 4 3 2 2 2 2 3 4 5 5 6 6 6 6 7 8 9 9 9 9 10 10 10 11 11 10 9 7 6
1 1 2 3 2 2 2 4 4 3 3 3 4 4 4 3 3 2 2 2 2 2 3 4 5 5 5 5 6 7 8 8 9 9 9 9 9 9 10 10 10 10 8 7
2 2 2 2 2 2 4 5 5 4 3 3 4 4 4 3 2 2 2 2 2 2 3 4 4 4 4 5 6 7 7 8 8 8 8 8 8 9 9 10 10 9 9 8
3 3 3 2 2 3 4 5 4 3 3 3 4 4 4 3 2 2 2 2 2 2 2 3 4 4 5 6 6 7 7 7 8 8 8 9 9 9 9 9 9 9 9 9
3 3 3 2 2 3 5 5 3 2 2 3 3 4 3 3 3 3 2 2 2 2 3 3 3 4 5 6 7 7 7 7 8 8 9 9 9 9 9 9 9 9 9 9
2 3 3 2 2 4 5 4 2 1 2 3 2 2 2 2 2 2 2 2 2 2 3 3 2 3 4 6 7 7 7 7 8 9 9 9 9 9 9 9 9 9 8 8
2 2 2 2 2 3 3 2 1 1 2 2 2 2 1 2 2 2 2 2 2 2 3 2 2 2 4 5 6 6 6 7 7 8 8 8 8 8 8 8 8 8 8 8
1 1 1 1 2 2 1 1 1 1 1 2 1 1 2 2 3 3 3 3 3 3 3 2 2 3 4 5 5 5 5 6 7 7 7 8 8 8 8 8 8 8 8 7
0 0 0 1 2 2 1 1 1 1 2 2 2 2 2 3 3 4 4 3 3 3 2 3 3 3 4 5 5 5 5 6 6 7 7 8 8 8 8 8 8 8 8 8
0 0 1 1 2 2 2 2 2 2 2 2 2 3 3 3 4 4 4 3 3 3 3 3 4 4 5 5 5 6 6 7 7 7 8 8 8 9 9 9 9 9 9 9
1 1 1 2 2 3 3 3 3 3 2 2 3 3 3 3 3 4 3 3 3 3 3 4 4 5 5 5 5 6 7 8 8 8 8 8 9 9 10 10 10 10 10 10